Wetbulb
54.88 55.57 55.88 56.59 56.80 56.62 56.37 55.66 55.09 55.07 54.80 55.02 55.52 56.54 56.08 56.51 56.87 56.04 52.52 57.02 57.05 58.97 58.18 57.12 54.60 53.32 56.54 55.19 55.91 57.40 51.21 49.69 53.65 54.05 56.35 59.95 57.92 60.55 62.50 61.57 67.88 69.44 70.01 72.48 74.10
53.43 53.88 54.38 55.04 56.12 56.79 56.38 55.94 55.58 54.93 54.57 54.79 55.10 55.49 55.29 55.92 53.50 51.56 58.57 59.78 58.83 58.45 56.34 53.89 50.48 50.65 52.60 52.81 53.78 53.04 50.04 50.00 55.77 57.65 56.42 59.33 58.42 59.70 60.12 62.51 66.72 68.51 72.43 73.41 73.65
52.61 52.97 53.18 53.76 54.41 55.23 55.94 55.36 55.32 55.03 54.60 54.11 54.64 54.74 55.17 55.31 49.80 51.32 59.35 59.25 59.83 58.67 57.85 56.78 53.33 50.22 50.36 52.33 51.98 51.86 49.37 52.86 54.97 55.85 56.19 58.12 57.69 60.37 59.33 60.48 66.04 67.75 70.49 72.34 72.83
54.44 54.44 54.36 53.94 53.88 54.14 54.59 54.31 54.11 54.54 54.59 54.43 54.10 54.14 54.71 53.08 41.30 55.79 58.66 58.68 59.06 59.60 57.98 55.72 51.76 47.70 48.28 48.94 51.89 48.72 52.32 53.71 54.79 54.90 54.40 56.08 59.30 57.65 59.64 61.74 67.00 70.02 72.53 72.59 72.44
52.99 53.41 53.88 54.23 54.42 54.55 54.49 54.17 53.61 53.32 53.47 54.05 53.98 53.65 52.21 45.79 47.57 56.68 59.11 58.92 59.42 57.94 56.23 54.43 49.56 48.09 46.59 49.95 50.61 49.44 51.51 53.91 55.14 54.55 55.14 56.45 56.92 58.16 59.08 61.51 68.98 71.85 72.17 72.07 72.58
52.06 52.05 52.19 52.55 52.88 53.72 54.37 54.35 54.11 53.88 53.41 53.13 53.85 53.75 48.71 40.94 54.37 55.89 56.81 57.46 58.36 57.87 56.13 55.45 50.25 50.13 48.62 49.97 49.57 51.32 52.11 52.81 54.52 54.41 54.73 54.21 55.98 58.26 59.50 67.18 69.93 71.35 71.49 71.79 71.75
51.86 51.78 51.51 51.45 51.42 51.84 52.83 53.42 53.66 53.57 53.67 53.89 53.79 52.31 46.65 45.45 55.08 56.52 56.31 55.95 57.12 57.36 53.99 55.64 52.44 49.41 50.95 49.17 52.60 51.57 49.39 51.93 52.77 54.12 54.22 55.41 52.52 55.17 61.30 68.89 69.33 70.22 71.04 71.06 71.83
51.78 51.88 51.46 51.27 51.26 51.49 51.56 52.41 52.38 52.64 53.15 53.60 54.29 51.40 43.35 54.01 56.21 54.07 56.20 55.00 56.42 57.65 55.64 54.22 53.27 50.58 51.28 52.85 50.83 48.58 49.32 46.44 51.46 53.18 54.20 54.39 49.72 56.12 62.09 68.06 68.16 69.27 70.48 70.46 71.46
51.86 51.79 51.92 51.32 51.42 51.59 51.46 51.41 51.46 52.22 52.62 52.91 50.25 48.65 42.73 55.34 50.89 53.78 55.44 51.90 54.04 55.67 55.19 53.96 52.20 49.17 49.91 47.68 45.97 47.04 43.17 45.37 47.92 53.02 53.03 53.16 52.58 56.45 59.90 66.05 67.20 68.62 69.40 69.78 70.33
51.80 51.88 52.02 51.71 51.58 51.85 51.71 51.06 51.47 51.43 51.11 50.99 50.02 43.06 47.95 46.65 52.60 54.20 56.11 53.77 51.87 51.93 49.40 48.98 48.61 45.04 46.54 45.54 39.62 41.79 43.20 45.23 46.02 50.29 52.03 51.08 52.00 55.62 58.00 60.82 63.70 66.00 66.47 66.92 64.81
52.08 52.00 51.80 51.96 51.92 51.61 50.93 47.92 45.17 44.68 46.21 44.45 45.00 44.33 47.46 51.98 55.03 52.38 54.89 51.51 52.26 48.55 41.90 46.73 42.78 40.48 43.48 46.28 46.93 46.01 44.78 44.51 47.66 51.08 49.94 50.28 51.59 54.11 57.27 58.07 59.16 60.27 61.27 61.26 61.43
51.79 52.02 51.92 51.72 51.42 51.36 49.79 42.50 44.00 45.53 39.83 47.86 48.05 47.80 51.15 50.88 45.67 48.62 52.67 46.98 46.98 41.78 44.27 43.32 39.91 44.46 46.04 46.59 45.92 45.88 44.52 44.68 47.65 50.14 49.98 49.76 50.46 53.97 56.89 57.04 57.66 58.78 59.68 60.45 61.74
51.39 51.59 51.72 51.93 51.25 49.23 45.37 45.88 48.84 47.86 39.94 43.45 47.71 47.17 47.85 49.50 43.18 46.05 49.82 48.04 44.99 42.29 41.61 40.77 41.92 45.50 44.78 44.47 43.73 44.28 44.14 44.74 44.93 48.20 50.01 49.80 48.78 51.42 55.28 57.85 58.98 59.86 59.62 60.54 61.07
51.18 51.16 51.81 51.51 48.06 48.23 46.02 50.11 51.21 49.41 35.20 37.41 42.30 46.10 47.80 48.73 42.16 51.13 51.34 47.27 45.32 41.54 42.42 41.72 45.40 43.20 43.19 42.75 44.37 41.16 46.24 46.32 45.90 45.66 42.17 50.00 42.25 49.73 53.07 54.68 56.90 58.63 59.73 60.88 61.50
50.50 51.31 51.67 50.41 47.39 43.49 46.89 49.38 49.29 46.36 27.12 38.80 41.37 51.70 49.89 46.09 46.46 46.05 52.72 49.19 42.72 42.56 41.61 39.42 41.43 40.30 42.06 43.04 45.06 43.24 45.94 45.74 46.17 45.75 45.46 45.88 44.11 48.22 52.55 51.58 55.12 57.96 59.27 60.39 61.36
50.70 51.31 50.62 50.61 52.26 48.98 51.35 51.12 47.63 36.67 29.70 35.54 42.27 42.28 43.22 44.96 45.46 47.15 47.28 51.17 49.66 43.97 44.15 43.40 44.72 44.69 43.49 45.79 46.29 47.46 45.55 44.78 45.53 44.38 39.82 44.69 43.86 45.46 48.69 51.49 54.06 57.23 58.56 59.41 60.17
50.78 50.27 50.78 51.29 47.23 51.69 53.24 48.22 36.33 33.88 41.75 34.60 37.78 42.14 43.98 39.99 42.99 44.22 44.08 44.39 41.68 38.42 38.73 41.60 41.22 43.57 45.55 43.10 46.11 46.42 44.39 37.91 36.20 36.87 36.80 44.56 43.25 45.94 51.15 52.99 54.65 55.55 56.98 58.65 59.60
49.63 48.98 50.51 53.24 54.23 53.16 49.73 42.46 34.13 36.72 35.48 40.20 39.84 42.58 39.80 42.64 43.68 43.65 43.39 41.74 45.77 43.41 41.14 37.25 34.50 41.34 44.24 44.14 42.84 44.62 44.89 39.37 33.36 35.27 38.58 43.89 39.56 45.23 51.29 53.15 54.30 56.08 57.43 58.17 58.94
48.70 54.56 53.23 53.86 52.83 52.59 45.13 37.28 35.71 37.16 39.26 37.22 41.08 39.80 38.69 42.17 42.87 42.67 43.12 42.80 44.79 46.48 40.40 39.16 38.32 44.56 43.71 45.21 45.69 43.64 41.94 46.35 41.39 43.49 40.13 41.62 44.49 48.40 50.42 52.12 54.43 54.76 56.45 57.21 57.91
51.16 51.65 50.50 54.24 55.80 51.58 43.47 35.09 38.48 41.44 42.96 40.10 37.12 41.55 39.60 41.66 40.55 41.58 41.86 45.29 44.35 47.51 48.12 43.42 37.39 43.22 43.29 45.38 45.91 45.53 47.33 40.20 42.95 35.39 34.60 40.01 41.82 42.89 47.30 49.37 51.82 52.91 55.03 56.95 58.25
51.16 48.52 51.06 54.72 55.61 48.32 36.29 36.49 38.79 42.90 44.57 39.68 39.09 41.91 42.64 41.61 41.86 41.12 41.35 44.70 46.98 46.65 47.57 45.93 42.63 41.08 43.55 42.26 41.33 43.29 42.89 44.27 44.50 43.52 38.00 36.92 40.81 49.61 49.81 51.91 53.08 54.58 56.13 57.80 59.15
48.82 43.41 51.61 54.68 44.39 43.74 38.52 39.26 41.80 42.14 45.37 42.61 42.73 43.96 43.86 43.63 41.53 41.82 41.08 43.55 48.51 48.33 44.33 47.51 44.23 38.53 40.02 45.18 46.70 45.55 43.97 44.81 40.39 39.18 44.36 44.62 42.95 52.82 54.24 55.54 56.25 56.23 56.95 58.54 60.01
44.97 46.22 52.09 51.91 36.33 36.11 40.71 41.07 42.09 41.93 41.78 40.74 42.23 45.76 48.88 44.33 40.38 42.95 44.12 48.21 48.70 48.30 46.54 47.90 43.52 37.78 39.87 43.58 46.02 43.59 45.07 45.57 46.12 46.17 41.47 39.98 42.94 54.70 55.98 55.79 56.40 56.78 57.67 58.62 61.40
45.50 41.76 46.52 47.71 42.98 37.14 36.84 38.52 37.94 43.78 42.43 42.76 42.94 46.59 46.99 45.56 46.90 43.61 45.09 47.49 49.10 49.12 52.28 51.03 45.62 42.32 37.95 40.10 44.00 42.26 43.84 45.42 45.78 42.13 42.74 43.00 46.04 51.30 53.67 54.18 55.34 56.51 57.49 59.69 61.31
44.29 40.39 40.99 38.61 40.21 39.37 39.80 39.57 36.77 37.06 42.31 43.79 42.55 43.17 43.55 43.72 45.29 44.81 46.57 46.75 47.85 50.13 49.41 49.56 43.96 45.62 45.11 45.14 44.38 44.10 43.58 44.40 44.21 45.41 42.68 44.55 44.95 48.90 54.45 54.93 54.74 56.53 57.75 59.09 58.19
41.75 39.53 41.31 38.50 42.46 41.19 39.25 38.08 36.49 38.34 39.75 39.83 39.46 41.39 45.62 44.26 45.65 44.16 47.02 47.25 45.76 48.54 48.32 50.04 45.41 46.68 44.56 47.18 46.99 44.89 45.27 45.07 45.37 45.71 45.76 45.95 47.08 54.84 55.94 55.45 55.81 56.51 56.67 54.65 55.56
45.61 45.33 39.37 40.18 41.12 40.83 39.50 37.98 37.57 40.10 42.59 42.22 41.43 41.57 44.22 44.72 46.61 49.96 52.68 52.55 52.55 48.91 48.00 47.74 46.64 44.69 41.32 46.41 46.32 42.85 46.45 46.08 46.48 47.55 47.47 44.89 50.59 55.25 52.85 53.42 54.72 53.62 52.67 50.16 51.27
MSLP
1020.26 1019.81 1019.38 1019.03 1018.61 1018.29 1017.99 1017.73 1017.47 1017.26 1016.97 1016.81 1016.60 1016.38 1016.16 1015.92 1015.55 1014.79 1013.06 1012.34 1012.57 1013.04 1013.44 1012.15 1011.37 1010.94 1010.63 1008.97 1007.92 1007.27 1005.31 1003.12 1001.97 1001.83 1001.30 1001.67 1002.46 1002.21 1003.22 1003.26 1003.75 1004.17 1004.31 1005.42 1007.48
1020.22 1019.78 1019.39 1018.94 1018.45 1018.08 1017.79 1017.51 1017.22 1016.97 1016.81 1016.58 1016.40 1016.12 1015.94 1015.75 1014.77 1013.01 1011.76 1011.94 1012.48 1013.02 1012.62 1011.76 1010.63 1010.17 1009.37 1008.39 1007.59 1006.36 1004.57 1002.43 1002.21 1002.45 1002.49 1001.31 1002.26 1001.93 1002.87 1002.94 1003.63 1004.64 1005.68 1006.65 1007.44
1020.16 1019.68 1019.23 1018.82 1018.30 1017.89 1017.58 1017.26 1017.05 1016.72 1016.45 1016.20 1016.13 1015.98 1015.74 1015.42 1013.73 1010.39 1010.75 1010.38 1011.66 1012.71 1012.39 1011.46 1010.77 1009.56 1008.53 1007.58 1006.58 1005.73 1003.65 1003.35 1002.73 1003.29 1003.85 1002.27 1002.32 1001.96 1002.49 1002.21 1002.83 1003.92 1005.46 1006.44 1007.15
1019.88 1019.40 1018.95 1018.50 1018.09 1017.73 1017.33 1017.00 1016.57 1016.33 1016.17 1016.01 1015.82 1015.69 1015.54 1014.88 1011.76 1009.49 1010.58 1011.04 1011.71 1011.91 1011.75 1011.17 1010.45 1008.96 1007.65 1006.23 1005.78 1005.24 1004.80 1003.66 1003.73 1004.51 1004.10 1002.75 1002.38 1002.57 1002.43 1002.32 1002.93 1004.15 1005.21 1006.20 1006.76
1019.82 1019.27 1018.68 1018.17 1017.68 1017.18 1016.72 1016.41 1016.21 1015.92 1015.71 1015.58 1015.51 1015.34 1015.12 1013.56 1010.92 1010.02 1010.35 1010.41 1010.27 1010.61 1010.29 1010.21 1009.29 1008.24 1006.63 1005.81 1005.64 1004.99 1004.23 1004.40 1004.06 1004.47 1003.98 1003.30 1002.85 1002.45 1002.92 1003.54 1003.82 1004.22 1005.28 1005.88 1006.48
1019.64 1019.13 1018.61 1018.07 1017.57 1016.94 1016.48 1016.07 1015.69 1015.45 1015.26 1015.13 1015.12 1014.97 1014.46 1012.32 1009.93 1009.81 1009.85 1009.99 1009.42 1009.15 1009.37 1009.33 1008.19 1007.70 1006.49 1005.36 1004.99 1004.86 1004.47 1004.78 1004.32 1004.33 1004.15 1003.76 1003.32 1002.99 1003.27 1004.06 1004.08 1004.60 1005.14 1005.71 1006.11
1019.36 1018.82 1018.27 1017.64 1017.03 1016.48 1015.98 1015.47 1015.10 1014.93 1014.68 1014.50 1014.46 1014.21 1013.11 1010.85 1009.68 1009.49 1009.85 1009.61 1009.75 1009.25 1008.89 1008.73 1007.96 1007.49 1006.36 1005.39 1005.21 1004.86 1004.79 1004.74 1004.36 1004.05 1003.75 1003.73 1003.64 1002.98 1003.49 1004.08 1004.23 1004.63 1005.18 1005.78 1006.01
1018.93 1018.37 1017.78 1017.12 1016.48 1015.86 1015.36 1014.91 1014.45 1014.16 1013.95 1013.84 1013.79 1013.54 1011.32 1009.76 1009.76 1009.59 1009.45 1009.38 1009.47 1009.60 1009.18 1008.82 1008.22 1007.15 1005.95 1005.76 1005.35 1004.83 1004.57 1003.89 1003.76 1003.99 1003.98 1004.03 1003.31 1003.19 1004.09 1004.09 1004.12 1004.42 1004.95 1005.63 1005.83
1018.48 1017.81 1017.13 1016.40 1015.72 1015.13 1014.66 1014.27 1013.82 1013.40 1013.21 1013.30 1013.28 1012.60 1009.75 1008.17 1008.45 1008.45 1008.54 1008.79 1009.10 1009.42 1009.35 1008.84 1008.37 1006.96 1006.23 1004.98 1004.75 1004.33 1002.99 1002.78 1003.11 1003.63 1003.69 1003.78 1002.93 1003.84 1004.24 1004.28 1004.09 1004.46 1004.78 1005.31 1005.83
1017.65 1016.97 1016.26 1015.52 1014.76 1014.35 1013.89 1013.33 1012.45 1012.16 1011.71 1012.32 1012.50 1012.17 1008.86 1007.10 1006.86 1007.34 1007.64 1008.79 1008.53 1008.91 1008.72 1008.14 1007.43 1006.33 1005.38 1004.15 1002.59 1002.59 1002.45 1002.70 1002.14 1003.25 1003.52 1003.60 1002.85 1003.56 1004.16 1004.32 1004.09 1004.53 1004.94 1005.25 1005.84
1017.08 1016.23 1015.36 1014.55 1013.93 1013.45 1013.12 1012.41 1010.51 1011.12 1011.03 1008.95 1008.81 1007.91 1006.29 1006.51 1007.07 1007.07 1007.36 1008.64 1008.00 1008.12 1007.03 1006.83 1006.00 1004.13 1003.58 1003.44 1002.63 1002.37 1002.48 1001.69 1002.09 1002.82 1003.37 1003.14 1003.06 1002.88 1003.86 1004.03 1003.69 1004.05 1004.47 1004.85 1005.26
1016.56 1015.42 1014.40 1013.50 1012.93 1012.66 1012.68 1012.10 1011.07 1011.25 1010.01 1008.49 1007.92 1007.77 1006.71 1007.32 1007.40 1007.71 1007.87 1007.71 1006.94 1006.43 1006.05 1006.07 1004.86 1004.48 1004.26 1003.77 1002.92 1002.30 1001.94 1001.37 1002.31 1003.23 1003.30 1003.12 1003.19 1003.22 1003.33 1004.00 1004.03 1004.15 1004.43 1004.74 1005.25
1015.94 1014.65 1013.58 1012.68 1012.16 1011.79 1011.43 1010.95 1011.12 1011.52 1010.32 1007.18 1006.25 1006.47 1006.66 1006.79 1007.60 1007.45 1007.41 1006.53 1006.06 1005.23 1005.09 1004.72 1004.92 1004.33 1004.05 1003.85 1003.34 1002.69 1001.87 1002.11 1002.26 1002.97 1003.55 1003.01 1003.28 1003.23 1003.54 1003.86 1004.16 1004.12 1004.55 1004.77 1005.21
1015.31 1014.07 1013.02 1012.02 1011.85 1011.16 1010.70 1010.43 1010.55 1011.09 1009.43 1007.79 1006.25 1005.63 1006.32 1006.66 1007.42 1007.20 1007.30 1006.37 1005.51 1004.89 1004.99 1004.64 1004.97 1004.85 1004.45 1003.96 1003.61 1002.84 1002.75 1002.60 1002.67 1002.99 1002.20 1002.70 1002.22 1002.83 1003.32 1003.43 1003.48 1003.78 1004.20 1005.06 1005.21
1014.98 1013.80 1012.78 1011.95 1012.02 1011.63 1010.90 1010.93 1011.20 1011.18 1009.29 1008.51 1007.14 1005.82 1005.50 1006.30 1006.11 1007.17 1006.51 1005.39 1004.65 1004.53 1004.89 1004.43 1004.76 1005.76 1004.21 1003.60 1003.58 1002.70 1003.39 1002.88 1002.92 1002.84 1002.11 1002.98 1001.96 1001.71 1002.93 1002.99 1003.20 1003.59 1003.92 1004.34 1004.54
1014.74 1013.83 1012.78 1012.04 1011.16 1011.66 1011.00 1010.65 1010.75 1010.19 1008.61 1008.16 1007.38 1006.21 1005.99 1006.23 1005.50 1006.11 1006.04 1006.16 1004.10 1004.46 1004.55 1003.92 1004.53 1005.10 1004.26 1004.05 1003.71 1003.51 1003.08 1003.35 1003.60 1003.03 1002.17 1001.88 1002.11 1000.47 1001.56 1002.26 1002.97 1003.48 1003.87 1004.27 1004.45
1014.53 1013.92 1012.90 1012.27 1011.60 1011.31 1010.87 1010.25 1009.62 1008.39 1008.22 1008.67 1007.57 1006.43 1005.23 1006.32 1005.37 1005.23 1004.94 1004.24 1003.81 1003.44 1003.41 1003.72 1003.90 1004.26 1004.20 1004.00 1004.19 1003.30 1002.36 1002.21 1002.67 1002.41 1001.61 1002.17 1002.18 1000.64 1000.75 1001.83 1002.29 1002.74 1003.40 1003.88 1004.37
1014.29 1013.64 1013.13 1011.99 1011.66 1011.36 1010.82 1010.08 1008.84 1009.10 1008.81 1008.70 1007.64 1006.09 1005.39 1005.26 1004.50 1004.41 1003.81 1002.77 1002.66 1002.26 1002.18 1002.50 1003.41 1003.51 1003.33 1002.90 1002.36 1002.37 1001.49 1000.64 1000.58 1000.80 1001.13 1001.87 1001.55 1001.11 1001.67 1001.88 1002.42 1002.47 1002.94 1003.35 1004.23
1013.89 1012.21 1011.40 1011.68 1011.87 1011.65 1010.76 1009.62 1010.38 1009.93 1009.62 1008.92 1007.30 1005.72 1005.45 1004.74 1003.12 1003.50 1002.62 1002.06 1001.99 1002.04 1001.35 1001.26 1001.62 1002.86 1003.08 1002.78 1002.65 1002.24 1001.62 1001.12 1000.51 1000.74 1000.74 1001.93 1001.94 1002.03 1002.05 1002.51 1003.15 1003.25 1003.58 1003.90 1004.17
1013.47 1011.87 1011.06 1011.36 1011.40 1011.09 1009.84 1010.59 1010.44 1010.18 1009.61 1009.17 1007.51 1005.70 1003.60 1002.69 1002.55 1002.43 1002.06 1001.79 1001.96 1001.37 1001.58 1001.17 1001.83 1002.52 1002.72 1002.92 1002.84 1002.19 1002.16 1002.38 1001.41 1000.90 1000.62 1001.02 1001.22 1000.99 1002.02 1002.37 1002.72 1002.82 1003.09 1003.41 1003.94
1013.13 1011.06 1011.51 1011.20 1010.79 1009.81 1010.75 1011.24 1011.01 1010.16 1009.56 1009.24 1007.91 1005.29 1003.07 1002.28 1002.12 1001.78 1001.85 1001.91 1001.74 1001.75 1001.78 1001.33 1001.39 1002.27 1002.69 1002.03 1001.81 1001.94 1001.83 1001.88 1001.18 1001.15 1000.63 1000.67 1001.10 1000.99 1001.37 1001.90 1002.31 1002.78 1002.99 1003.64 1004.06
1013.09 1011.26 1012.02 1010.95 1010.20 1011.29 1011.64 1011.80 1011.27 1010.47 1009.45 1009.08 1008.16 1006.29 1003.56 1002.19 1001.81 1001.55 1001.61 1001.20 1001.68 1001.34 1001.40 1001.43 1001.02 1001.74 1002.01 1002.05 1001.93 1001.87 1001.81 1002.15 1001.66 1001.86 1001.03 1000.78 1001.14 1002.04 1002.07 1002.68 1003.32 1003.52 1003.95 1004.15 1004.22
1013.65 1012.53 1012.47 1011.64 1012.07 1012.53 1012.37 1011.75 1011.22 1010.62 1010.20 1009.53 1008.23 1006.77 1004.63 1002.57 1001.95 1001.40 1001.63 1001.14 1001.59 1001.58 1001.31 1001.39 1001.24 1001.05 1001.36 1001.87 1001.61 1001.38 1001.53 1001.90 1002.01 1001.80 1001.50 1001.26 1001.40 1002.60 1003.06 1003.51 1003.99 1004.40 1004.60 1004.86 1004.92
1014.45 1012.85 1012.84 1012.66 1013.93 1013.95 1013.17 1012.48 1011.88 1011.26 1010.63 1010.03 1008.93 1007.03 1005.05 1003.30 1002.22 1001.71 1001.36 1001.64 1001.34 1001.71 1001.87 1001.59 1000.95 1000.54 1000.29 1000.44 1000.99 1000.92 1001.06 1001.40 1001.63 1001.82 1001.22 1001.10 1001.27 1002.52 1003.21 1003.88 1004.79 1005.25 1005.59 1005.72 1006.04
1015.73 1015.45 1015.80 1014.22 1013.75 1013.93 1013.67 1012.98 1012.62 1012.04 1011.24 1010.43 1009.16 1008.39 1006.92 1004.57 1003.06 1002.39 1001.96 1001.87 1001.88 1002.00 1002.04 1001.88 1000.96 1000.41 1000.15 1000.27 1000.80 1000.80 1000.70 1000.92 1001.05 1000.99 1000.67 1000.69 1001.10 1001.50 1003.17 1004.65 1005.58 1006.16 1006.67 1007.09 1008.13
1017.06 1017.20 1016.97 1015.79 1014.38 1013.65 1013.62 1013.31 1013.12 1012.68 1012.06 1011.05 1010.55 1009.61 1007.99 1006.74 1006.26 1004.48 1003.20 1002.12 1001.81 1002.30 1002.04 1002.06 1001.57 1000.75 1000.75 1000.76 1000.39 1000.05 1000.13 1000.33 1000.44 1000.48 1000.72 1000.94 1001.41 1002.82 1004.94 1005.89 1006.59 1007.34 1008.31 1009.73 1010.29
1018.81 1018.73 1018.60 1015.90 1014.05 1013.46 1013.58 1013.61 1013.32 1013.03 1012.12 1011.87 1011.35 1010.37 1008.86 1008.70 1008.06 1006.51 1004.84 1003.87 1002.71 1001.80 1001.77 1001.75 1001.33 1000.85 1000.58 1000.54 1000.21 1000.01 999.82 999.89 1000.12 1000.46 1000.76 1000.98 1001.53 1004.37 1005.96 1007.19 1008.11 1009.42 1010.82 1012.16 1012.51
Wind_Speed
18 18 18 15 13 14 14 12 11 10 12 13 12 12 10 11 13 17 23 14 5 11 13 10 7 14 14 17 21 14 16 21 33 26 21 18 16 12 2 8 2 1 3 11 21
17 17 16 18 18 15 12 13 13 12 11 13 13 11 10 10 17 22 21 15 17 13 12 10 11 17 17 20 17 19 20 29 23 20 19 16 18 15 11 8 8 7 13 21 21
17 17 17 17 17 16 14 13 14 13 13 11 13 12 12 13 16 9 12 10 21 13 17 11 15 18 23 19 26 25 24 21 10 6 17 13 17 11 14 14 10 11 15 20 22
20 19 19 17 17 17 15 15 14 14 14 13 11 12 11 11 8 7 4 7 9 16 14 15 17 22 24 27 24 23 28 22 11 14 13 16 15 14 15 3 3 7 16 18 20
21 21 21 20 19 17 15 15 15 15 14 13 12 12 12 12 16 9 11 13 13 18 21 21 22 23 27 25 24 27 24 21 16 15 12 5 14 14 14 3 6 15 16 17 18
21 22 22 22 22 21 18 16 15 14 15 15 13 12 13 19 10 10 10 8 8 15 18 23 17 23 22 20 26 21 21 21 21 15 11 11 8 11 8 9 11 16 17 16 16
21 21 21 22 22 22 21 18 16 15 16 16 14 12 15 22 9 6 9 2 2 11 14 22 17 22 15 20 22 18 26 21 23 19 11 8 8 10 12 13 16 18 16 14 14
21 21 22 23 23 22 22 21 20 19 19 18 16 14 15 15 21 25 19 13 7 8 11 15 13 22 12 16 21 21 25 20 26 23 15 15 16 9 11 15 16 17 16 14 14
22 22 22 24 24 23 21 21 24 24 21 17 13 13 13 11 22 21 17 18 14 10 12 16 12 16 18 19 20 21 20 27 26 24 17 17 21 14 11 12 15 15 15 14 13
24 24 24 25 26 23 21 22 24 22 11 8 9 8 15 15 8 11 18 14 13 15 15 20 13 18 18 18 21 26 25 28 22 24 24 19 17 22 11 14 14 15 14 12 12
27 26 25 25 25 22 17 8 10 8 7 11 14 12 2 5 3 4 14 18 17 17 16 22 17 22 28 26 25 25 25 29 25 18 27 22 18 13 18 14 15 15 14 14 14
29 28 28 26 23 19 12 4 9 7 9 18 19 23 5 10 1 5 18 17 20 21 22 16 19 21 23 22 24 25 25 19 21 16 21 23 21 14 23 17 14 14 12 13 11
29 31 29 26 16 9 2 9 1 6 6 11 16 21 14 14 4 13 17 13 22 22 20 19 17 18 22 19 14 18 23 16 20 17 19 22 20 20 14 21 23 18 12 9 10
30 31 28 23 3 2 0 4 2 6 5 6 3 6 20 8 5 15 16 14 16 17 20 16 18 10 17 22 18 16 18 17 19 21 16 18 16 22 20 17 18 18 15 15 11
31 30 23 13 1 2 5 2 5 2 6 7 4 3 16 10 14 15 23 14 20 18 8 11 18 16 21 21 18 10 15 19 15 18 17 20 15 24 21 19 18 19 17 11 10
32 27 19 1 0 8 8 5 3 6 5 6 3 8 22 7 9 22 15 10 10 16 8 11 16 22 16 16 12 12 21 17 18 11 13 15 18 17 23 24 22 19 15 15 13
32 22 10 5 7 9 2 4 6 6 12 4 4 12 17 4 14 24 19 14 10 17 14 13 18 15 20 19 13 13 20 12 15 14 11 18 14 14 21 22 23 22 19 17 13
31 16 3 6 5 5 4 5 5 7 4 5 2 11 9 12 21 24 18 13 12 12 14 16 17 15 19 24 19 21 21 14 20 16 12 12 12 9 9 2 10 15 16 14 14
26 4 8 8 4 7 5 7 10 7 8 9 6 12 3 10 13 26 18 15 8 12 9 9 12 14 21 20 17 23 17 5 3 16 14 11 5 3 5 13 12 13 13 13 14
6 5 14 15 5 6 5 5 7 11 8 4 4 6 13 15 20 21 17 11 11 11 4 4 18 14 18 19 20 22 17 9 7 10 10 13 15 7 16 15 16 16 14 14 12
6 4 13 15 5 3 4 6 6 13 8 4 5 5 12 14 19 18 17 13 13 13 4 7 13 14 19 14 21 16 17 13 7 4 7 7 9 6 13 11 14 14 7 6 10
6 4 12 11 8 4 7 7 7 12 13 6 4 7 4 8 15 12 15 7 14 8 8 1 9 15 19 14 16 14 16 14 6 8 4 1 9 5 5 7 4 5 4 2 7
6 4 7 9 7 7 10 14 11 13 10 8 7 9 10 12 11 11 16 4 19 10 5 5 12 16 16 10 13 17 18 16 11 7 9 5 8 7 7 6 4 1 1 5 6
6 4 4 5 8 10 10 11 15 10 5 8 5 8 5 6 6 8 11 3 15 12 5 7 8 10 9 15 14 16 16 17 12 8 10 8 13 11 9 6 3 2 3 5 6
5 5 4 6 7 12 12 12 15 11 9 12 4 15 9 1 11 9 6 8 5 3 3 5 9 8 8 17 18 18 18 17 16 13 9 7 7 2 9 5 4 5 5 8 9
7 6 7 6 7 8 10 12 14 15 5 10 9 15 10 7 10 6 5 4 5 5 9 6 4 8 10 11 13 14 19 19 19 15 11 7 2 6 11 9 9 9 13 11 11
6 4 2 8 7 7 8 11 12 14 5 7 11 8 7 10 13 13 6 5 4 7 10 7 5 7 8 8 12 11 12 14 15 14 11 11 6 16 12 11 11 14 14 12 14
Wind_Direction
331 331 331 329 316 311 311 315 316 315 316 320 319 313 307 310 294 262 258 246 228 259 267 282 238 207 220 228 216 229 225 226 218 222 219 191 222 195 179 249 166 90 29 126 146
332 325 322 323 323 317 307 309 307 306 311 316 316 319 310 318 290 273 258 248 231 237 264 243 228 199 208 214 200 210 219 219 223 207 255 211 214 206 216 203 196 145 114 132 147
334 334 324 318 317 320 315 307 307 302 293 294 302 310 311 301 288 247 36 242 208 229 238 253 247 209 214 207 204 211 227 222 193 189 236 219 220 196 219 214 201 183 151 152 157
334 327 323 319 314 310 309 306 303 299 299 287 295 302 299 275 262 113 100 29 183 218 219 219 221 212 213 206 204 214 223 226 188 193 215 217 210 205 221 210 120 182 159 162 167
337 334 332 330 322 310 300 298 299 296 296 288 283 290 278 238 242 270 269 295 249 214 210 207 207 210 211 211 206 215 198 229 195 197 208 191 207 207 209 210 186 151 163 168 169
335 332 329 325 323 320 316 308 297 294 287 286 268 278 251 254 274 270 260 257 267 202 204 207 209 210 215 210 211 194 215 201 216 198 183 217 189 188 154 186 157 159 164 169 167
332 328 325 322 317 311 307 305 303 299 290 279 269 257 253 238 283 255 199 204 287 214 211 207 215 208 225 209 210 200 212 202 215 208 201 217 184 209 145 179 165 169 163 173 176
329 325 321 319 315 309 304 298 295 290 283 278 267 259 254 246 239 246 244 253 228 234 232 197 226 208 227 200 188 215 203 199 199 208 211 207 188 179 166 176 172 169 163 171 173
327 321 316 314 308 304 305 298 293 285 281 270 265 234 261 213 227 240 225 225 224 205 206 199 211 206 210 205 185 196 192 207 186 201 185 206 197 161 171 188 170 168 166 170 171
323 318 312 307 304 305 303 296 291 280 245 218 234 212 241 242 204 211 198 200 194 177 173 192 204 198 197 198 192 188 209 198 199 186 214 197 216 164 175 198 175 181 179 180 184
324 317 311 305 300 297 299 317 253 174 221 197 180 217 61 190 120 186 169 177 189 175 182 189 199 198 192 197 206 192 205 192 205 179 201 201 203 221 181 209 173 172 170 174 180
326 319 316 311 305 303 284 251 277 12 287 237 262 214 187 115 62 148 170 171 170 177 182 177 207 198 197 204 216 207 204 202 186 157 203 204 202 194 194 201 198 186 179 183 178
328 325 325 322 321 291 314 256 213 12 254 264 228 220 228 248 258 152 199 171 181 170 183 179 188 192 194 194 198 223 197 175 183 175 206 191 203 196 187 201 206 221 206 199 201
333 331 334 330 257 52 47 339 19 198 283 337 145 209 200 117 223 160 211 169 188 164 182 189 132 186 187 190 200 182 210 185 180 180 182 189 194 196 194 197 203 195 198 192 205
337 336 339 337 13 300 311 5 359 164 327 354 329 191 168 178 138 167 204 218 171 157 201 157 159 185 198 185 203 167 192 196 175 199 189 188 243 180 207 197 197 205 203 213 215
336 339 331 352 139 330 282 262 220 231 40 356 319 141 160 150 173 172 208 224 162 161 205 142 178 177 193 169 207 153 177 181 197 211 220 177 217 203 189 208 207 202 211 214 222
335 339 351 332 1 326 234 257 268 10 347 24 15 167 167 157 165 171 194 172 152 164 161 147 168 180 189 177 197 197 155 161 180 196 215 205 197 236 192 196 218 208 209 205 211
331 316 240 8 358 329 316 254 347 7 7 359 246 188 164 178 165 172 186 172 188 181 151 141 171 166 183 190 182 192 192 166 178 185 156 159 218 207 154 299 211 231 220 196 216
316 307 19 17 4 313 278 26 1 347 353 356 172 137 179 233 162 174 188 168 163 179 172 170 136 182 179 195 190 189 212 54 250 189 179 168 198 117 199 166 192 200 204 210 214
313 288 29 359 327 286 1 358 341 342 343 342 3 225 143 149 156 181 187 166 172 204 14 131 139 162 170 175 199 191 202 151 227 175 179 177 193 213 172 192 200 211 215 212 217
282 309 15 345 276 356 25 357 304 327 9 357 333 293 122 140 162 176 183 163 194 173 251 163 160 160 173 196 173 187 192 209 234 263 189 152 211 206 182 199 199 207 206 237 216
303 37 10 328 49 10 11 344 307 330 342 5 305 283 334 148 168 165 179 180 190 166 188 316 158 152 172 192 182 191 196 204 185 174 49 295 99 127 140 144 162 192 221 241 215
338 338 39 13 37 1 341 8 349 354 13 351 331 351 315 137 152 175 179 112 178 190 172 183 153 157 155 176 187 185 188 199 216 262 199 161 123 146 150 169 145 238 118 171 177
314 342 31 30 66 355 342 356 354 349 18 337 331 22 330 158 173 162 160 85 173 200 48 302 163 173 177 166 176 183 185 198 196 191 200 214 127 164 178 175 118 101 130 136 162
358 52 13 336 0 353 357 358 349 358 344 9 15 13 352 247 145 132 126 125 162 122 221 271 161 202 166 154 177 190 193 206 205 211 240 173 206 97 138 124 77 92 119 122 125
356 354 355 277 304 347 15 360 351 346 314 353 0 334 330 60 7 50 336 191 165 181 199 218 136 136 128 167 197 200 204 202 212 214 227 251 190 86 101 124 101 95 88 115 123
1 40 269 292 334 345 17 342 326 347 314 349 328 312 344 7 324 296 317 309 305 193 185 196 152 209 125 170 180 185 191 199 210 225 232 226 137 125 117 98 92 96 108 98 94